Regional Weather Roundup
Issued by NWS

Home | Current Version | Previous Version | Text Only | Print | Product List | Glossary On
Versions: 1 2 3 4 5 6 7 8 9 10 11 12 13 14 15 16 17 18 19 20 21 22 23 24 25 26 27 28 29 30 31 32 33 34 35 36 37 38 39 40 41 42 43 44 45 46 47 48 49 50
000
ASUS45 KSLC 290210
RWRUT

UTAH REGIONAL WEATHER ROUNDUP
NATIONAL WEATHER SERVICE SALT LAKE CITY UT
800 PM MDT MON JUL 28 2014

UTZ001>011-023>025-290300-

NORTHERN UTAH

CITY           SKY/WX    TMP DP  RH WIND       PRES   REMARKS
HILL AFB       CLOUDY    70  56  60 E13       30.22F
LOGAN          CLOUDY    70  58  65 SW9       30.19S
OGDEN          CLOUDY    73  54  51 S18G26    30.18S
PROVO AIRPORT  MOCLDY    72  63  73 VRB5      30.24S
SALT LAKE CITY CLOUDY    68  63  84 S10       30.20F
VERNAL         CLOUDY    74  55  51 S15G22    30.27R
WENDOVER       CLOUDY    84  46  26 NW12      30.13S
HEBER CITY     LGT RAIN  64  59  82 CALM      30.32S
WEST JORDAN    CLOUDY    70  66  88 CALM      30.24F

$$

UTZ012>022-026-027-290300-

SOUTHERN UTAH

CITY           SKY/WX    TMP DP  RH WIND       PRES   REMARKS
BRYCE CANYON   CLOUDY    62  53  72 NW6       30.43R
CEDAR CITY     TSTM      68  56  65 S20       30.26S
MILFORD        MOCLDY    83  52  34 CALM      30.19R
MOAB/CYNLANDS  CLEAR     85  50  29 SE8       30.13S
PRICE          CLOUDY    70  58  65 E6        30.29F
ST GEORGE      CLOUDY    84  55  37 SE14      30.07F
KANAB            N/A     72  57  60 SE6       30.27R

$$

REGIONAL REPORTS     COLORADO/ARIZONA

CITY           SKY/WX    TMP DP  RH WIND       PRES   REMARKS
CRAIG, CO      CLOUDY    65  52  62 W9        30.29R
GRAND JUNCTION CLOUDY    78  54  43 NE18G28   30.20R
RIFLE          LGT RAIN  67  56  67 E3        30.32R
MONTROSE       MOCLDY    81  49  32 N3        30.27R
CORTEZ         PTCLDY    70  56  61 NE15      30.33S
PAGE, AZ       MOCLDY    83  53  35 SE10      30.18R
GRAND CANYON   MOCLDY    73  48  41 W6        30.36F
KINGMAN        PTCLDY    84  56  38 N10       30.13S
FLAGSTAFF      MOCLDY    70  49  47 VRB5      30.39S

$$

REGIONAL REPORTS    NEVADA/IDAHO/WYOMING

CITY           SKY/WX    TMP DP  RH WIND       PRES   REMARKS
LAS VEGAS, NV  CLOUDY    86  60  41 S9        29.99F
ELY            CLOUDY    68  53  58 NW5       30.34S
ELKO           CLOUDY    75  51  43 E7G16     30.25R
POCATELLO, ID  MOCLDY    77  43  29 N12       30.16R
BURLEY         CLOUDY    80  54  40 CALM      30.12R
EVANSTON, WY   LGT RAIN  59  54  83 W17       30.37F
ROCK SPRINGS   CLOUDY    78  42  27 SW10      30.29R

$$


USA.gov is the U.S. government's official web portal to all federal, state and local government web resources and services.